Mercury, NV

10:05 PM PDT on September 21, 2017 (GMT -0700)
Mercury

Weather History for KDRA - December, 2012

Change the Weather History Date:

Sunday, December 9, 2012

  Actual Average Record
Temperature  
Mean Temperature 46 °F 44 °F  
Max Temperature 57 °F 55 °F 70 °F (1979)
Min Temperature 36 °F 32 °F 12 °F (2009)
Degree Days  
Heating Degree Days 18    
Cooling Degree Days 0    
Moisture  
Dew Point 18 °F    
Average Humidity 30    
Maximum Humidity 47    
Minimum Humidity 12    
Precipitation  
Precipitation 0.00 in 0.02 in 0.01 in (1982)
Month to date precipitation 0.13  
Year to date precipitation 5.42  
Sea Level Pressure  
Sea Level Pressure 30.10 in    
Wind  
Wind Speed 7 mph (NE)    
Max Wind Speed 20 mph    
Max Gust Speed 26 mph    
Visibility 10 miles    
Events      
T = Trace of Precipitation, MM = Missing Value Source: NWS Daily Summary

Daily Weather History Graph

Daily Weather History Graph

Search for Another Location

Airport or City:

Trip Planner

Search our weather history database for the weather conditions in past years. The results will help you decide how hot, cold, wet, or windy it might be!

Date:

Astronomy

Dec. 09, 2012 Rise Set
Actual Time 6:45 AM PST 4:28 PM PST
Civil Twilight 6:16 AM PST 4:57 PM PST
Nautical Twilight 5:44 AM PST 5:29 PM PST
Astronomical Twilight 5:12 AM PST 6:00 PM PST
Moon 2:27 AM PST (12/9) 1:34 PM PST (12/9)
Length of Visible Light 10h 40m
Length of Day
9h 43m
Waning Crescent, 17% of the Moon is Illuminated
Dec 9
Waning Crescent
Dec 13
New
Dec 19
First Quarter
Dec 28
Full
Jan 4
Last Quarter

Hourly Weather History & Observations

Time (PST) Temp. Windchill Dew Point Humidity Pressure Visibility Wind Dir Wind Speed Gust Speed Precip Events Conditions
12:52 AM 41.0 °F 37.1 °F 19.0 °F 41% 29.97 in 10.0 mi NE 5.8 mph - N/A   Clear
1:52 AM 37.9 °F 35.5 °F 16.0 °F 41% 29.98 in 10.0 mi SE 3.5 mph - N/A   Clear
2:52 AM 39.0 °F 35.7 °F 18.0 °F 43% 29.97 in 10.0 mi ENE 4.6 mph - N/A   Clear
3:52 AM 39.0 °F - 19.0 °F 45% 29.98 in 10.0 mi Calm Calm - N/A   Clear
4:52 AM 39.9 °F 37.8 °F 18.0 °F 41% 30.00 in 10.0 mi West 3.5 mph - N/A   Clear
5:52 AM 42.1 °F - 19.0 °F 40% 30.02 in 10.0 mi Calm Calm - N/A   Clear
6:52 AM 39.9 °F - 19.0 °F 43% 30.06 in 10.0 mi Calm Calm - N/A   Clear
7:52 AM 37.9 °F - 19.0 °F 47% 30.08 in 10.0 mi Calm Calm - N/A   Clear
8:52 AM 48.9 °F - 21.0 °F 33% 30.08 in 10.0 mi Calm Calm - N/A   Clear
9:14 AM 53.6 °F - 21.2 °F 28% 30.13 in 10.0 mi NNE 17.3 mph 24.2 mph N/A   Clear
9:52 AM 54.0 °F - 21.0 °F 28% 30.10 in 10.0 mi NNE 11.5 mph - N/A   Clear
10:52 AM 55.0 °F - 21.0 °F 27% 30.10 in 10.0 mi NE 13.8 mph - N/A   Clear
11:52 AM 57.0 °F - 19.0 °F 23% 30.10 in 10.0 mi NNE 19.6 mph 26.5 mph N/A   Clear
12:52 PM 57.0 °F - 19.0 °F 23% 30.11 in 10.0 mi NE 16.1 mph - N/A   Clear
1:52 PM 57.9 °F - 19.0 °F 22% 30.12 in 10.0 mi ENE 16.1 mph 24.2 mph N/A   Clear
2:52 PM 57.9 °F - 18.0 °F 21% 30.11 in 10.0 mi NE 15.0 mph 20.7 mph N/A   Clear
3:52 PM 55.9 °F - 18.0 °F 23% 30.12 in 10.0 mi NNE 17.3 mph - N/A   Clear
4:52 PM 52.0 °F - 18.0 °F 26% 30.15 in 10.0 mi NNE 11.5 mph - N/A   Clear
5:52 PM 48.9 °F - 18.0 °F 29% 30.16 in 10.0 mi NNE 10.4 mph - N/A   Clear
6:52 PM 48.9 °F - 17.1 °F 28% 30.18 in 10.0 mi NE 17.3 mph - N/A   Clear
7:52 PM 46.9 °F - 16.0 °F 29% 30.21 in 10.0 mi East 3.5 mph - N/A   Clear
8:52 PM 46.0 °F 39.6 °F 16.0 °F 30% 30.21 in 10.0 mi NNE 15.0 mph - N/A   Clear
9:52 PM 45.0 °F 38.9 °F 15.1 °F 30% 30.21 in 10.0 mi NE 12.7 mph - N/A   Clear
10:52 PM 43.0 °F 38.2 °F 16.0 °F 34% 30.22 in 10.0 mi NE 8.1 mph - N/A   Clear
11:52 PM 44.1 °F 38.6 °F 15.1 °F 31% 30.22 in 10.0 mi NNE 10.4 mph - N/A   Clear